www.pogodaiklimat.ru

Погода и климат >> Архив погоды >> Россия >> Якутия >> Усть-Чаркы


ПОГОДА в Усть-Чарках

  • Прогноз погоды в Усть-Чарках
  • Монитор погоды в Усть-Чарках
  • Климат города

АРХИВ ПОГОДЫ в Усть-Чарках

Время (UTC), дата Ветер
(напр.,м/с)
 
Видим.   Явления Облачность Т
(С)
Тd
(С)
f
(%)
Тe
(С)
Тes
(С)
Комфортность P
(гПа)
Po
(гПа)
Тmin
(С)
Tmax
(С)
R
(мм)
R24
(мм)
S
(см)
09 17.05 ЮВ 2 50 км 1/0
[Ci fib]
+8.3 -4.7 39 +7 +9 997.3 964.9 +9.0
12 17.05 ЮВ 1 50 км 8/0
[Ci sp]
+6.7 -4.5 45 +6 +6 996.2 963.5
15 17.05 штиль 0 50 км 10/0
[Cs]
-1.0 -5.3 73 -2 -2 996.4 962.8
18 17.05 штиль 0 50 км 10/0
[Cs]
-1.6 -4.2 82 -3 -3 995.7 962.2
21 17.05 штиль 0 50 км 10/0
[Ac trans Ci sp]
+2.5 -1.4 75 +2 +4 994.1 961.1 -1.8 0
00 18.05 штиль 0 50 км 10/3 1000 м
[Sc Ac trans Ci sp]
+8.3 +0.3 57 +8 +12 992.5 960.2
03 18.05 штиль 0 50 км 10/3 1000 м
[Sc Ac trans Ci sp]
+8.3 +0.3 57 +8 +13 992.5 960.2
06 18.05 СЗ 1 50 км {ливн. осадки} 10/8 600 м
[Cb cap Ci sp]
+8.5 +5.2 80 +8 +9 991.7 959.5
09 18.05 штиль 0 50 км в посл. час ливневой дождь 10/10 600 м
[Cb cap]
+7.5 +6.6 94 +6 +6 992.5 960.2 +9.0 3
12 18.05 СВ 10 50 км {ливн. осадки} 10/6 600 м
[Cb calv Ac trans Ci sp]
+5.1 +4.9 99 -2 -2 993.7 961.0
15 18.05 50 км н/о +3.5 +3.0 97 +2 +2 994.3 961.4
18 18.05 С 2 50 км 10/10 1000 м
[Sc]
+0.6 -0.8 90 -3 -3 995.4 962.5
21 18.05 З 1 4000 м снег 10/6 1000 м
[Sc As op]
-1.5 -3.0 89 -4 -4 997.0 963.4 -1.7 1
00 19.05 С 3 50 км {снег} 10/3 1000 м
[Sc As op]
-2.4 -5.3 80 -7 -7 998.3 964.5 -2.4
03 19.05 СЗ 2 20 км слабый снег 10/3 600 м
[Frnb As op]
-1.9 -5.0 79 -6 -4 1000.0 966.1
06 19.05 З 2 10 км слабый снег 10/4 600 м
[Frnb As op]
-2.0 -4.1 86 -6 -5 1001.6 967.7
09 19.05 СЗ 2 4000 м снег 10/4 600 м
[Frnb Ac trans]
-2.4 -4.3 87 -6 -6 1003.2 969.2 -1.4 4
12 19.05 СЗ 2 4000 м снег 10/10 600 м
[Frnb Ns]
-3.6 -4.7 92 -8 -8 1005.7 971.5
15 19.05 СЗ 2 10 км слабый снег 10/10 600 м
[Frnb Ns]
-4.8 -6.1 91 -9 -9 1006.4 972.1
18 19.05 СЗ 1 50 км {снег} 10/3 600 м
[St Ac lent Cs]
-6.3 -8.6 84 -9 -9 1007.0 972.4
21 19.05 СЗ 2 50 км 10/0
[Cs]
-5.9 -9.4 76 -10 -8 1007.1 972.5 -6.7 4 7
00 20.05 С 2 50 км 10/4 1000 м
[Cu med, cong Ci fib]
-4.0 -9.8 64 -8 -4 1007.4 973.1
03 20.05 СЗ 1 50 км 9/9 1000 м
[Sc]
-3.0 -10.2 58 -5 -3 1007.3 973.1
06 20.05 СЗ 2 50 км 10/10 1000 м
[Sc]
-2.0 -10.0 54 -5 -5 1007.7 973.6
09 20.05 С 1 50 км 10/10 1000 м
[Sc]
-1.6 -9.8 54 -3 -3 1008.3 974.3 -1.5
12 20.05 СЗ 1 50 км 10/10 1000 м
[Sc]
-2.6 -10.5 55 -4 -4 1009.6 975.4
15 20.05 С 2 50 км 10/10 1000 м
[Sc]
-3.4 -9.9 61 -7 -7 1010.1 975.8
18 20.05 С 2 50 км 10/10 1000 м
[Sc]
-5.0 -10.8 64 -9 -9 1011.1 976.5
21 20.05 СЗ 3 50 км 10/10
[Sc]
-4.4 -10.0 65 -9 -9 1011.6 977.2 -5.4 6
00 21.05 СЗ 3 50 км 10/10 1000 м
[Sc]
-4.3 -11.7 56 -9 -9 1011.6 977.2
03 21.05 СЗ 3 50 км 10/10 1000 м
[Sc]
-3.2 -11.0 55 -15 -15 1011.7 977.4
06 21.05 СЗ 3 50 км 10/10 1000 м
[Sc]
-3.0 -11.1 54 -8 -8 1011.9 977.5
09 21.05 З 3 50 км 10/10 1000 м
[Sc]
-3.1 -10.8 55 -8 -8 1012.7 978.3 -2.6
12 21.05 З 1 50 км 10/10 1000 м
[Sc]
-2.6 -10.5 55 -4 -4 1013.0 978.7
15 21.05 СЗ 1 50 км 10/10 1000 м
[Sc]
-2.9 -10.0 58 -5 -5 1013.3 978.9
18 21.05 штиль 0 50 км 10/10 1000 м
[Sc]
-3.5 -9.6 63 -4 -4 1013.4 979.0
21 21.05 СЗ 1 50 км 10/10 1000 м
[Sc]
-3.1 -9.0 64 -5 -5 1013.8 979.4 -4.2 4
00 22.05 С 1 50 км 10/10 1000 м
[Sc]
-1.1 -8.5 57 -3 -3 1013.6 979.4
03 22.05 С 1 50 км 9/9 1000 м
[Sc]
+0.9 -7.2 55 -0 +1 1013.3 979.4
06 22.05 СЗ 1 50 км 9/9 1000 м
[Sc]
+3.5 -6.3 49 +3 +4 1012.2 978.7
09 22.05 СЗ 1 50 км 6/6 1000 м
[Sc]
+4.1 -6.2 47 +3 +5 1012.1 978.7 +5.0
12 22.05 С 1 50 км 8/0
[Cc]
+2.9 -7.6 46 +2 +2 1011.8 978.2
15 22.05 штиль 0 50 км 10/0
[Ci sp]
-1.8 -6.7 69 -3 -3 1013.1 978.9
18 22.05 штиль 0 50 км 4/0
[Ci fib]
-4.7 -6.0 91 -6 -6 1014.1 979.5
21 22.05 штиль 0 50 км ясно -0.6 -5.1 72 -1 +2 1013.4 979.4 -6.3
00 23.05 штиль 0 50 км ясно +5.1 -4.2 51 +5 +16 опасность
простуды
1012.5 979.2
03 23.05 ЮВ 1 50 км ясно +8.0 -4.4 41 +8 +21 опасность
простуды
1010.8 977.7
06 23.05 штиль 0 50 км ясно +11.3 -4.0 34 +11 +22 опасность
простуды
1009.5 977.0
09 23.05 СВ 1 50 км ясно +11.6 -6.1 28 +12 +15 1008.7 976.2 +11.9
12 23.05 штиль 0 50 км 1/0
[Ac trans]
+8.4 -7.7 31 +8 +9 1008.9 976.1
15 23.05 штиль 0 50 км 9/6 1000 м
[Sc Ac trans]
+2.0 -4.1 64 +1 +1 1009.6 976.0
18 23.05 штиль 0 50 км 9/8 1000 м
[Sc Ac trans]
+0.7 -3.6 73 -0 -0 1009.6 975.8
21 23.05 штиль 0 50 км 9/9 1000 м
[Sc]
+6.2 -1.1 59 +6 +6 1008.3 975.2 +0.1
00 24.05 ЮВ 1 50 км 3/0
[Ac trans]
+12.1 -0.7 41 +13 +20 1005.8 973.5
03 24.05 ЮВ 2 50 км 10/0
[Ac trans Ci sp]
+15.1 -0.7 34 +15 +21 1002.8 971.0

 

Местоположение метеостанции Усть-Чаркы (Якутия, Россия): широта 66.80 долгота 136.60 высота над уровнем моря 274 м.

В архиве по умолчанию представлена погода в Усть-Чарках за последнюю неделю. Архивные данные за месяц целиком и за предыдущие месяцы, начиная с января 2011 года, Вы можете получить, выбрав интересующий диапазон дат из раскрывающегося списка и нажав кнопку "Ввод!".

Внимание! Время в таблицах - всемирное. Для получения местного времени необходимо прибавить поправку, которая в Усть-Чарках равна 10 ч.

Смотрите также архив погоды в соседних городах и на ближайших метеорологических станциях:

Погода в Батагае (Якутия, Россия) (128 км)
Погода в Верхоянске (Якутия, Россия) (162 км)
Погода в Иэме (Якутия, Россия) (171 км)
Погода в Екюччю (Якутия, Россия) (219 км)
Погода в Батагай-Алыте (Якутия, Россия) (288 км)
Погода в Усть-Моме (Якутия, Россия) (294 км)
Погода в Депутатском (Якутия, Россия) (316 км)
Погода в Томпо (Якутия, Россия) (319 км)
Погода в Себян-Кюеле (Якутия, Россия) (341 км)
Погода в Усть-Куйге (Якутия, Россия) (358 км)

Пояснения к столбцам:

Ветер - указаны скорость ветра в м/с - средняя за 10 мин, порывы в срок и между сроками (в фигурных скобках) и направление, откуда дует ветер: С - северный, СВ - северо-восточный, В - восточный, ЮВ - юго-восточный, Ю - южный, ЮЗ - юго-западный, З - западный, СЗ - северо-западный.
Видимость - горизонтальная дальность видимости в метрах или километрах. При видимости от 1 до 10 км при отсутствии осадков обычно наблюдается дымка, при ухудшении видимости до 1 км и менее - туман. В сухую погоду видимость может ухудшаться дымом, пылью или мглою.
Явления - указаны атмосферные явления, наблюдавшиеся в срок или в последний час перед сроком; фигурными скобками обозначены явления, наблюдавшиеся между сроками (за 1-3 часа до срока); квадратными скобками обозначены град или гололедные отложения с указанием их диаметра в мм.
Облачность - указаны через наклонную черту общая и нижняя облачность в баллах и высота нижней границы облаков в метрах; квадратными скобками обозначены формы облаков: Ci - перистые, Cs - перисто-слоистые, Cc - перисто-кучевые, Ac - высококучевые, As - высокослоистые, Sc - слоисто-кучевые, Ns - слоисто-дождевые, Cu - кучевые, Cb - кучево-дождевые. Подробнее классификацию облаков см. в Атласе облаков (PDF).
T - Температура воздуха - температура, измеренная на высоте 2 м над землей.
Td - Температура точки росы - температура, при понижении до которой содержащийся в воздухе водяной пар достигнет насыщения.
f - Относительная влажность воздуха - влажноcть воздуха, измеренная на высоте 2 м над землей.
Te - Эффективная температура - температура, которую ощущает одетый по сезону человек в тени. Характеристика душности погоды. При расчете учитывается влияние влажности воздуха и скорости ветра на теплоощущения человека.
Tes - Эффективная температура на солнце - температура, которую ощущает человек, с поправкой на солнечный нагрев. Характеристика знойности погоды. Зависит от высоты солнца над горизонтом, облачности и скорости ветра. Ночью, в пасмурную погоду, а также при ветре 12 м/с и более поправка равна нулю.
P - Атмосферное давление - приведенное к уровню моря атмосферное давление.
Po - Атмосферное давление - измеренное на уровне метеостанции атмосферное давление.
Tmin - Минимальная температура - минимум температуры воздуха на высоте 2 м над землей.
Tmax - Максимальная температура - максимум температуры воздуха на высоте 2 м над землей.
R - Количество осадков - Количество выпавших осадков за период времени, мм. При наведении курсора мыши на число - период времени, за который выпало указанное количество осадков.
R24 - Количество осадков - Количество выпавших осадков за 24 часа, мм.
S - Снежный покров - Высота снежного покрова, см. При наведении курсора мыши на число - состояние снежного покрова и степень покрытия местности в баллах.